Location: Krasnoyarskiy Pitomnik
(51.1333°N, 71.6167°E)
Time: 23:46:36
(UTC+00:00)

NOSS 2-2 (C) - Pass Details

Date: 06 June 2022
Orbit: 439 x 1763 km, 63.3° (Epoch: 02 June)

Event Time Altitude Azimuth Distance (km) Brightness Sun altitude
Rises 17:44:48 0° 310° (NW) 3,009 8.2 -13.7°
Reaches altitude 10° 17:46:58 10° 302° (WNW) 2,243 7.2 -13.8°
Maximum altitude 17:51:41 37° 235° (SW) 1,366 5.2 -14.1°
Enters shadow 17:56:03 18° 179° (S) 2,361 5.9 -14.3°
